Orbital Elements at Epoch 2459200.5 (2020-Dec-17.0) TDB
Reference: JPL 20 (heliocentric ecliptic J2000)
Element | Value | Uncertainty (1-sigma) | Units |
e | .1813823176558145 | 5.1817e-08 | |
a | 2.375833202148578 | 9.7224e-09 | au |
q | 1.944899069579234 | 1.2244e-07 | au |
i | .7327908450227181 | 3.844e-06 | deg |
node | 307.9802615335294 | 0.00045874 | deg |
peri | 97.76193724066628 | 0.00045889 | deg |
M | 232.2203189781431 | 1.2954e-05 | deg |
tp | 2459675.268226782051 (2022-Apr-05.76822678) | 4.9726e-05 | TDB |
period | 1337.587950405846 3.66 | 8.2106e-06 2.248e-08 | d yr |
n | .2691411805038839 | 1.6521e-09 | deg/d |
Q | 2.806767334717922 | 1.1486e-08 | au |
|
| | Orbit Determination Parameters
Additional Information
|